Preview of NWS' New Version of Forecast
This preview is not operational and should not be used for support decisions.

Regional Weather Roundup (RWR)

Issued by Gray - Portland, ME (GYX)

                            
000
ASUS41 KGYX 210410
RWRGYX
WEATHER ROUNDUP FOR MAINE AND NEW HAMPSHIRE
NATIONAL WEATHER SERVICE GRAY ME
1200 AM EDT SUN APR 21 2019

MEZ002-005-006-010-012-015-018-020-021-024-026-027-029-210500-
MAINE
  
CITY           SKY/WX    TMP DP  RH WIND       PRES   REMARKS
PORTLAND       FOG       52  51  97 S6        29.97F VSB 1/2          
SANFORD        CLOUDY    59  59 100 S5        29.98R FOG              
BAR HARBOR     FOG       53  52  96 SW13G23   30.07R VSB 3/4          
WISCASSET      CLOUDY    52  52 100 VRB3      30.02S FOG              
ROCKLAND       LGT RAIN  49  49 100 S12       30.03F VSB 3/4          
FRYEBURG       CLOUDY    59  59 100 SE3       29.96S                  
LEWISTONAUBURN LGT RAIN  57  57 100 SE7       29.98F VSB 3/4          
AUGUSTA        FOG       56  56 100 S10       30.01S VSB 1            
WATERVILLE     LGT RAIN  48  48 100 SW3       29.98R VSB 1/2          
BANGOR         DRZL/FOG  53  53 100 S14       30.03R VSB 1/2          
GREENVILLE       N/A     43  42  97 SE9       29.95F                  
MILLINOCKET    LGT RAIN  41  39  93 CALM      30.04S FOG              
HOULTON        CLOUDY    39  38  96 SE6       30.06S FOG              
PRESQUE ISLE   CLOUDY    39  38  96 SE3       30.07F FOG              
FRENCHVILLE    FOG       39  36  89 E9        30.04F VSB 1/2          
CARIBOU        FOG       39  37  92 E5        30.05F VSB 3/4          
$$

NHZ002-005-008-009-011-012-014-210500-
NEW HAMPSHIRE
  
CITY           SKY/WX    TMP DP  RH WIND       PRES   REMARKS
PORTSMOUTH     CLOUDY    58  57  99 SE8       29.95R FOG              
ROCHESTER      FOG       59  59 100 SE6       29.95R VSB 3/4          
NASHUA         MOCLDY    64  61  90 SE7       29.94S                  
MANCHESTER     MOCLDY    65  59  81 S13       29.93R                  
CONCORD        CLOUDY    64  58  80 S10G23    29.93S                  
LACONIA        CLOUDY    65  60  84 S10       29.94S                  
PLYMOUTH       CLOUDY    63  58  85 E5        29.92R                  
BERLIN         FAIR      63  58  83 E15G22    29.90S                  
WHITEFIELD     FAIR      67  53  61 SE16G29   29.87F                  
JAFFREY        CLOUDY    61  51  70 S10       29.94R                  
KEENE          CLOUDY    62  53  72 S10G20    29.92R                  
LEBANON        MOCLDY    66  52  60 S16G26    29.88R                  
MT WASHINGTON  FOG       45  45 100 S52G61      N/A  VSB 0            
$$

VTZ005-007-008-210500-
VERMONT
  
CITY           SKY/WX    TMP DP  RH WIND       PRES   REMARKS
ST JOHNSBURY     N/A     66  57  72 MISG      29.82S                  
MONTPELIER     MOCLDY    62  55  77 S8        29.88R                  
BURLINGTON     FAIR      45  43  93 N6        29.80R FOG              
$$

MAZ007-012-024-CTZ003-RIZ002-NYZ038-NYZ072-210500-
SOUTHERN NEW ENGLAND AND NY
  
CITY           SKY/WX    TMP DP  RH WIND       PRES   REMARKS
BOSTON         CLOUDY    62  59  90 S5        29.95F                  
WORCESTER      CLOUDY    57  56  96 S10G20    29.94F                  
NANTUCKET      LGT RAIN  54  54 100 SE16      30.02F VSB 1/2          
PROVIDENCE     LGT RAIN  56  56 100 S8        29.94F                  
HARTFORD       CLOUDY    60  54  80 S7        29.91F                  
ALBANY         CLOUDY    61  48  62 S17G25    29.83R                  
NEW YORK CITY  MOCLDY    55  50  83 S12       29.87R                  
$$

ANZ081-ANZ082-ANZ150-NHZ014-MEZ023>029-210500-
COASTAL MARINE OBSERVATIONS
  
STATION/POSITION TIME  TEMP    WIND        PRES    WAVE
                       AIR SEA DIR/SP/G            HT/PER
                 (UTC) (F)     (DEG/KT/KT) (MB)    (FT/S)
ISLE OF SHOALS   0300   50     200/ 17/ 18 1014.7R
$$

.............KEY..............
   WCI - WIND CHILL
   TC  - TEMPERATURE IN CELSIUS
   VSB - VISIBILITY IN MILES
   HX  - HEAT INDEX
   FAIR- INDICATES FEW OR NO CLOUDS BELOW 12,000 FT, WITH NO 
         SIGNIFICANT WEATHER AND/OR OBSTRUCTIONS TO VISIBILITY.